Regional Weather Roundup
Issued by NWS

Home | Current Version | Previous Version | Graphics & Text | Print | Product List | Glossary On
Versions: 1 2 3 4 5 6 7 8 9 10 11 12 13 14 15 16 17 18 19 20 21 22 23 24 25 26 27 28 29 30 31 32 33 34 35 36 37 38 39 40 41 42 43 44 45 46 47 48 49 50
000
ASUS43 KOAX 251610
RWRNE

WEATHER ROUNDUP FOR NEBRASKA
NATIONAL WEATHER SERVICE OMAHA NE
1100 AM CDT WED APR 25 2018

NOTES: SATELLITE DATA IS BEING USED TO AUGMENT CLOUD COVER ABOVE
       12000 FEET.
       "FAIR" INDICATES FEW OR NO CLOUDS BELOW 12,000 FEET WITH NO
       SIGNIFICANT WEATHER AND/OR OBSTRUCTIONS TO VISIBILITY.


NEZ001>004-019>022-054>056-251700-
NEBRASKA PANHANDLE

CITY           SKY/WX    TMP DP  RH WIND       PRES   REMARKS
SCOTTSBLUFF    SUNNY     44  33  65 SW5       30.29F
ALLIANCE       SUNNY     47  26  44 W13       30.27F
CHADRON        SUNNY     50  27  40 W12       30.25F
GORDON         FAIR      48  29  48 SW14      30.25F
KIMBALL        SUNNY     45  27  49 W7        30.30F
SIDNEY         SUNNY     45  27  49 VRB5      30.31F
$$

NEZ057>060-069>072-079>082-251700-
SOUTHWEST NEBRASKA

CITY           SKY/WX    TMP DP  RH WIND       PRES   REMARKS
NORTH PLATTE   MOSUNNY   51  31  46 NW10      30.30F
IMPERIAL       SUNNY     48  29  47 NW8G17    30.31F
LEXINGTON      PTSUNNY   48  35  62 N10G16    30.29F
MCCOOK         MOSUNNY   50  33  52 N14       30.30F
OGALLALA       SUNNY     49  28  45 NW7       30.31F
$$

NEZ005>010-023>029-035>040-094-251700-
NORTH CENTRAL NEBRASKA

CITY           SKY/WX    TMP DP  RH WIND       PRES   REMARKS
VALENTINE      SUNNY     52  25  35 NW5       30.27F
AINSWORTH      SUNNY     48  33  56 NW6       30.27F
BROKEN BOW     SUNNY     49  33  54 N12       30.28F
O`NEILL        SUNNY     51  33  50 N9        30.29S
ORD            SUNNY     49  35  58 N14G22    30.27F
THEDFORD       SUNNY     50  28  42 CALM      30.28F
$$

NEZ041-046>049-061>064-073>077-083>087-251700-
SOUTH CENTRAL NEBRASKA

CITY           SKY/WX    TMP DP  RH WIND       PRES   REMARKS
GRAND ISLAND   CLOUDY    48  32  53 N16       30.28S
AURORA         CLOUDY    45  36  72 N12       30.27F
HASTINGS       CLOUDY    45  35  68 N16G25    30.28S
HEBRON         CLOUDY    44  39  82 N10G16    30.26S
HOLDREGE       PTSUNNY   46  37  71 N14       30.29S
KEARNEY        CLOUDY    46  35  65 N13       30.29F
YORK             N/A     45  45 100 N13       30.27S
$$

NEZ011>018-030>034-042>045-251700-
NORTHEAST NEBRASKA

CITY           SKY/WX    TMP DP  RH WIND       PRES   REMARKS
NORFOLK        MOSUNNY   49  36  61 N8        30.25S
ALBION         CLOUDY    48  37  64 N9        30.27F
BLAIR          CLOUDY    44  39  81 NW7       30.25S
COLUMBUS       CLOUDY    44  36  73 N8        30.28S
FREMONT        CLOUDY    48  40  75 NW6       30.27S
TEKAMAH        CLOUDY    46  38  73 N9        30.26S
WAYNE          SUNNY     49  38  66 N6        30.26F
$$

NEZ050>053-065>068-078-088>093-251700-
SOUTHEAST NEBRASKA

CITY           SKY/WX    TMP DP  RH WIND       PRES   REMARKS
LINCOLN        CLOUDY    47  41  80 N13       30.27S
OMAHA EPPLEY   CLOUDY    46  39  76 N10       30.25S
BEATRICE       CLOUDY    46  43  89 N10       30.24S
FALLS CITY     LGT RAIN  46  46 100 N12       30.21S
NEBRASKA CITY  DRIZZLE   45  45  99 N9        30.24S
PLATTSMOUTH    DRIZZLE   46  42  86 NW7       30.24F
$$

NEZ044-045-051>053-067-251700-
OMAHA AREA

CITY           SKY/WX    TMP DP  RH WIND       PRES   REMARKS
OMAHA EPPLEY   CLOUDY    46  39  76 N10       30.25S
BLAIR          CLOUDY    44  39  81 NW7       30.25S
FREMONT        CLOUDY    48  40  75 NW6       30.27S
MILLARD        CLOUDY    46  40  80 N5        30.26S
OFFUTT AFB     CLOUDY    46  40  80 NW8       30.23F
PLATTSMOUTH    DRIZZLE   46  42  86 NW7       30.24F
WAHOO          CLOUDY    45  39  79 N13       30.26S
$$




USA.gov is the U.S. government's official web portal to all federal, state and local government web resources and services.